Location: Unspecified
(0.0000°N, 0.0000°E)
Time: 09:42:39
(UTC+00:00)

Vanguard 3 - Pass Details

Date: 12 October 2022
Orbit: 509 x 3255 km, 33.3° (Epoch: 29 November)

Event Time Altitude Azimuth Distance (km) Brightness Sun altitude
Rises 22:48:22 0° 224° (SW) 7,099 12.2 -73.6°
Reaches altitude 10° 22:54:15 10° 216° (SW) 5,844 11.6 -74.9°
Enters shadow 22:58:18 18° 208° (SSW) 4,973 11.1 -75.8°
